"Pseudo-MPEC" for C2E6952

Created 2020 Mar 26 23:07:07 UT using Find_Orb

Click here for an explanation of pseudo-MPECs

 
 Astrometry: 
     C2E6952  C2020 03 24.24993 11 25 26.18 +15 48 29.5    ~3O6b 22.5 GVNEOCPG96
     C2E6952  C2020 03 24.25510 11 25 25.45 +15 48 26.2    ~3O6b       VNEOCPG96
     C2E6952  C2020 03 24.26025 11 25 24.68 +15 48 22.9    ~3O6b 21.7 GVNEOCPG96
     C2E6952  C2020 03 24.26540 11 25 23.88 +15 48 19.5    ~3O6b 21.1 GVNEOCPG96
     C2E6952  C2020 03 24.36443 11 25 09.29 +15 47 14.6    ~3O97 22.5 GVNEOCPG96
     C2E6952  C2020 03 24.36622 11 25 08.97 +15 47 13.9    ~3O97       VNEOCPG96
     C2E6952  C2020 03 24.36802 11 25 08.76 +15 47 11.9    ~3O97       VNEOCPG96
     C2E6952  C2020 03 24.36981 11 25 08.44 +15 47 10.3    ~3O97       VNEOCPG96
     C2E6952  C2020 03 25.31002 11 22 57.14 +15 36 41.8    ~3P7q       VNEOCPG96
     C2E6952  C2020 03 25.31182 11 22 56.84 +15 36 40.0    ~3P7q 21.7 GVNEOCPG96
     C2E6952  C2020 03 25.31442 11 22 56.46 +15 36 38.3    ~3P7q 21.4 GVNEOCPG96
     C2E6952  C2020 03 25.91085 11 21 33.56 +15 29 34.1    ~3PNM 21.5 VVNEOCP033
     C2E6952  C2020 03 25.91443 11 21 33.00 +15 29 31.5    ~3PNM 21.5 VVNEOCP033
     C2E6952  C2020 03 25.91801 11 21 32.53 +15 29 29.4    ~3PNM 21.8 VVNEOCP033
     C2E6952  C2020 03 26.89464 11 19 16.82 +15 17 35.3    ~3QMM 21.8 VVNEOCP033
     C2E6952  C2020 03 26.89822 11 19 16.35 +15 17 32.7    ~3QMM 22.1 VVNEOCP033

Station data:
(033) Karl Schwarzschild Observatory, Tautenburg  (N50.980140 E11.711240)
   Germany. 1.3-m Schmidt.
(G96) Mt. Lemmon Survey  (N32.442754 W110.788720)  US/Arizona.  Observers T.
   A. Pruyne, B. M. Africano, E. J. Christensen, G. A. Farneth, D. C. Fuls,
   A. R. Gibbs, A. D. Grauer, H. Gröller, J. A. Johnson, R. A. Kowalski, S.
   M. Larson, G. J. Leonard, D. Rankin, R. L. Seaman, F. C. Shelly. 1.5-m
   reflector + 10K CCD.

Orbital elements:  C2E6952
   Perihelion 2020 Jul 13.704410 +/- 0.93 TT = 16:54:21 (JD 2459044.204410)
Epoch 2020 Mar 26.0 TT = JDT 2458934.5   Earth MOID: 0.2178   Ma: 0.0648
M 301.55090593 +/- 0.49             (J2000 ecliptic)          AutoNEOCP
n   0.53278709 +/- 0.00487          Peri.  250.97886 +/- 0.48
a   1.50695488 +/- 0.00917          Node    14.07162 +/- 0.17
e   0.2449354 +/- 0.00412           Incl.   12.22583 +/- 0.22
P   1.85/675.68d           H 22.3   G  0.15   U  9.2  
q 1.13784818 +/- 0.00165    Q 1.87606158 +/- 0.0174
From 16 observations 2020 Mar. 24-26; mean residual 0".32
Residuals in arcseconds: 
200324 G96  .16-  .00     200324 G96  .29+  .20-    200325 033  .57-  .41-    
200324 G96  .35+  .02+    200324 G96  .53-  .60-    200325 033  .15+  .03+    
200324 G96  .24+  .04+    200325 G96  .56+  .58+    200326 033  .31-  .08+    
200324 G96  .30-  .04-    200325 G96  .06+  .03+    200326 033  .36+  .15+    
200324 G96  .33+  .10+    200325 G96  .11+  .14+    
200324 G96  .49-  .60+    200325 033  .01+  .35-    

Ephemerides (geocentric):
Date (UTC) HH   RA              Dec         delta   r     elong  mag " sig PA
---- -- -- --  -------------   -----------  ------ ------ -----  --- ---- ---
2020 03 26 23  11 19 07.833   +15 16 59.74  .41585 1.3882 156.0 22.0 .044   3
2020 03 27 00  11 19 02.064   +15 16 28.36  .41579 1.3880 156.0 22.0 .028  12
2020 03 27 01  11 18 56.296   +15 15 56.92  .41573 1.3879 155.9 22.0 .015  38
2020 03 27 02  11 18 50.531   +15 15 25.40  .41567 1.3877 155.9 22.0 .014 112
2020 03 27 03  11 18 44.767   +15 14 53.82  .41561 1.3876 155.8 22.0 .028 144
2020 03 27 04  11 18 39.006   +15 14 22.17  .41555 1.3874 155.8 22.0 .045 153
2020 03 27 05  11 18 33.246   +15 13 50.46  .41549 1.3873 155.7 22.0 .063 158
2020 03 27 06  11 18 27.489   +15 13 18.68  .41543 1.3871 155.7 22.0 .082 160
2020 03 27 07  11 18 21.733   +15 12 46.83  .41537 1.3870 155.7 22.0 .101 161
2020 03 27 08  11 18 15.980   +15 12 14.92  .41531 1.3868 155.6 22.0 .122 162
2020 03 27 09  11 18 10.229   +15 11 42.94  .41525 1.3867 155.6 22.0 .142 163
2020 03 27 10  11 18 04.480   +15 11 10.89  .41519 1.3865 155.5 22.0 .163 163
2020 03 27 11  11 17 58.733   +15 10 38.78  .41513 1.3864 155.5 22.0 .185 164
2020 03 27 12  11 17 52.988   +15 10 06.60  .41507 1.3863 155.4 22.0 .207 164
2020 03 27 13  11 17 47.245   +15 09 34.36  .41501 1.3861 155.4 22.0 .230 164
2020 03 27 14  11 17 41.504   +15 09 02.05  .41495 1.3860 155.3 22.0 .253 164
2020 03 27 15  11 17 35.766   +15 08 29.67  .41490 1.3858 155.3 22.0 .277 164
2020 03 27 16  11 17 30.030   +15 07 57.22  .41484 1.3857 155.2 22.0 .302 164
2020 03 27 17  11 17 24.296   +15 07 24.71  .41478 1.3855 155.2 22.0 .327 164
2020 03 27 18  11 17 18.565   +15 06 52.14  .41473 1.3854 155.1 22.0 .352 164
2020 03 27 19  11 17 12.836   +15 06 19.50  .41467 1.3852 155.1 22.0 .378 164
2020 03 27 20  11 17 07.109   +15 05 46.79  .41461 1.3851 155.0 22.0 .404 164
2020 03 27 21  11 17 01.384   +15 05 14.01  .41456 1.3849 155.0 22.0 .431 164
2020 03 27 22  11 16 55.662   +15 04 41.17  .41450 1.3848 154.9 22.0 .459 164
2020 03 27 23  11 16 49.942   +15 04 08.27  .41445 1.3846 154.9 22.0 .487 164
2020 03 28 00  11 16 44.224   +15 03 35.29  .41439 1.3845 154.8 22.0 .516 164
2020 03 28 01  11 16 38.509   +15 03 02.26  .41434 1.3843 154.8 22.0 .545 164
2020 03 28 02  11 16 32.797   +15 02 29.15  .41428 1.3842 154.8 22.0 .575 164
2020 03 28 03  11 16 27.087   +15 01 55.98  .41423 1.3841 154.7 22.0 .605 164
2020 03 28 04  11 16 21.379   +15 01 22.75  .41417 1.3839 154.7 22.0 .636 164
2020 03 28 05  11 16 15.674   +15 00 49.45  .41412 1.3838 154.6 22.0 .667 164
2020 03 28 06  11 16 09.971   +15 00 16.08  .41407 1.3836 154.6 22.0 .699 164
2020 03 28 07  11 16 04.271   +14 59 42.65  .41401 1.3835 154.5 22.0 .731 164
2020 03 28 08  11 15 58.573   +14 59 09.15  .41396 1.3833 154.5 22.0 .764 164
2020 03 28 09  11 15 52.878   +14 58 35.59  .41391 1.3832 154.4 22.0 .797 164
2020 03 28 10  11 15 47.186   +14 58 01.96  .41386 1.3830 154.4 22.0 .831 164
2020 03 28 11  11 15 41.496   +14 57 28.26  .41380 1.3829 154.3 22.0 .866 164
2020 03 28 12  11 15 35.809   +14 56 54.50  .41375 1.3827 154.3 22.0 .901 164
2020 03 28 13  11 15 30.125   +14 56 20.68  .41370 1.3826 154.2 22.0 .936 164
2020 03 28 14  11 15 24.443   +14 55 46.79  .41365 1.3824 154.2 22.0 .973 164
2020 03 28 15  11 15 18.764   +14 55 12.83  .41360 1.3823 154.1 22.0 1.01 164
2020 03 28 16  11 15 13.087   +14 54 38.81  .41355 1.3821 154.1 22.0 1.05 163
2020 03 28 17  11 15 07.414   +14 54 04.72  .41350 1.3820 154.0 22.0 1.08 163
2020 03 28 18  11 15 01.743   +14 53 30.57  .41345 1.3819 154.0 22.0 1.12 163
2020 03 28 19  11 14 56.074   +14 52 56.35  .41340 1.3817 153.9 22.0 1.16 163
2020 03 28 20  11 14 50.409   +14 52 22.07  .41335 1.3816 153.9 22.0 1.20 163
2020 03 28 21  11 14 44.747   +14 51 47.72  .41330 1.3814 153.8 22.0 1.24 163
2020 03 28 22  11 14 39.087   +14 51 13.31  .41325 1.3813 153.8 22.0 1.28 163